Location: Andershausen
(51.8462°N, 9.8595°E)
Time: 06:04:29
(UTC+00:00)

Cosmos 2263 Rocket - Pass Details

Date: 18 November 2025
Orbit: 822 x 848 km, 71.0° (Epoch: 11 December)

Event Time Altitude Azimuth Distance (km) Brightness Sun altitude
Rises 16:10:03 0° 278° (W) 3,365 6.5 -6.9°
Reaches altitude 10° 16:13:38 10° 302° (WNW) 2,438 5.1 -7.4°
Maximum altitude 16:16:46 15° 336° (NNW) 2,111 4.3 -7.9°
Drops below altitude 10° 16:19:54 10° 11° (N) 2,451 4.3 -8.3°
Enters shadow 16:22:38 - 30° (NNE) 3,128 4.7 -8.7°
